IRIDIUM 111

Last updated on Fri Sep 11 2026 00:03:06 GMT+0000 (Coordinated Universal Time)

1 41926U 17003K 26253.51752420 -.00000045 00000+0 -23006-4 0 9992 2 41926 86.3931 52.6708 0002055 89.8452 270.2979 14.34216766505488
UTC large
Height (km)
Speed (km/s)
/
Latitude / Longitude
Inclination (degrees)
Orbital Period (minutes)
Azimuth
Elevation
Range (km)
Doppler Factor

Next 0 passes for location: London (51.5072 / 0.1276)

No passes found over London.
IRIDIUM 111